Regional Weather Roundup
Issued by NWS

Home | Current Version | Previous Version | Text Only | Print | Product List | Glossary On
Versions: 1 2 3 4 5 6 7 8 9 10 11 12 13 14 15 16 17 18 19 20 21 22 23 24 25 26 27 28 29 30 31 32 33 34 35 36 37 38 39 40 41 42 43 44 45 46 47 48 49 50
000
ASUS43 KLSX 241607
RWRMO

WEATHER SUMMARY FOR MISSOURI
NATIONAL WEATHER SERVICE SPRINGFIELD MO
1000 AM CST FRI FEB 24 2017

NOTE: "FAIR" INDICATES FEW OR NO CLOUDS BELOW 12,000 FEET WITH NO
       SIGNIFICANT WEATHER AND/OR OBSTRUCTIONS TO VISIBILITY.
       CURRENT SKY AND/OR WEATHER CONDITIONS ARE NOT AVAILABLE FOR
       CHILLICOTHE AND FARMINGTON.

MOZ001>031-035>038-043-044-053-054-241700-
...NORTHERN AND WESTERN MISSOURI...

CITY           SKY/WX    TMP DP  RH WIND       PRES   REMARKS
KANSAS CTY INT DRIZZLE   38  36  92 NW14      29.67R WCI  30
KANSAS C DTWN  CLOUDY    42  34  73 W15G22    29.67S
LEE`S SUMMIT   CLOUDY    40  34  79 W14       29.67R
ST JOSEPH      CLOUDY    37  35  92 NW20G25   29.69R WCI  27
KIRKSVILLE     CLOUDY    40  38  93 W15       29.58R

$$
MOZ066>068-077>081-088>096-101>105-241700-
...SOUTHWEST MISSOURI...

CITY           SKY/WX    TMP DP  RH WIND       PRES   REMARKS
SPRINGFIELD    CLOUDY    43  36  76 MISG      29.69R
JOPLIN         CLOUDY    41  33  73 NW17      29.76R
BRANSON        CLOUDY    46  39  76 W7G16     29.71R

$$
MOZ032>034-039>042-045>050-055>058-069>072-241700-
...CENTRAL MISSOURI...

CITY           SKY/WX    TMP DP  RH WIND       PRES   REMARKS
COLUMBIA       CLOUDY    46  41  82 W15G24    29.60R
JEFFERSON CITY CLOUDY    47  39  74 W18       29.62R
ROLLA          CLOUDY    47  43  86 W17       29.60R
SEDALIA        CLOUDY    44  37  76 W17G28    29.65R
WHITEMAN AFB   PTSUNNY   42  40  91 W16G24    29.65R
WARRENSBURG    CLOUDY    41  34  75 W15       29.67R
OSAGE BEACH    CLOUDY    46  38  73 W12       29.66R

$$
MOZ051-052-059>065-241700-
...EAST CENTRAL MISSOURI...

CITY           SKY/WX    TMP DP  RH WIND       PRES   REMARKS
ST LOUIS INTL  CLOUDY    59  50  72 NW17G25   29.52R
SPIRIT OF STL  CLOUDY    56  50  80 W17G25    29.54R
ST CHARLES     CLOUDY    55  50  83 W21       29.52R

$$
MOZ072>076-082>087-097>100-106>115-241700-
...SOUTH CENTRAL AND SOUTHEAST MISSOURI...

CITY           SKY/WX    TMP DP  RH WIND       PRES   REMARKS
CAPE GIRARDEAU MOSUNNY   66  54  65 SW24G35   29.59R
FARMINGTON     MOSUNNY   65  53  65 SW18G24   29.55F
POPLAR BLUFF   PTSUNNY   65  54  67 SW25G35   29.59S

$$


USA.gov is the U.S. government's official web portal to all federal, state and local government web resources and services.